Flag for Canada Weather past 2 weeks in Québec, Quebec, Canada

Now
19 °F

Passing clouds.


Feels Like: 11 °F
Forecast: 8 / 29 °F
Wind: 6 mph from Northwest

Location: Quebec Weather Station

Current Time: Dec 19, 2014 at 7:58:37 AM

Latest Report: Dec 19, 2014 at 7:00 AM


Visibility: 15 mi

Pressure: 29.93 "Hg

Humidity: 73%

Dew point: 12 °F

Location of QuébecLocation

Historic Weather in Québec — Graph

°F

Québec temperature yesterday

Maximum temperature yesterday: 32 °F (at 2:00 PM)
Minimum temperature yesterday: 23 °F (at 10:00 PM)
Average temperature yesterday: 29 °F

Past Weeks' High & Low Weather Summary

 TemperatureHumidityPressure
High36 °F (Dec 11, 1:00 PM)100% (Dec 12, 1:00 AM)30.85 "Hg (Dec 12, 1:00 AM)
Low-6 °F (Dec 5, 5:00 AM)39% (Dec 7, 11:00 AM)29.60 "Hg (Dec 11, 5:00 AM)
Average23 °F82%30.11 "Hg
* Reported Dec 4 7:00 AM — Dec 19 7:00 AM, Québec, Weather by CustomWeather, © 2014

Note: Actual official high and low records may vary slightly from our data, if they occured in-between our weather recording intervals... More about our weather records

Advertising

Québec weather history for previous 24 hours

 ConditionsComfort  
Time TempWeatherWind HumidityBarometerVisibility
7:00 AM
Dec 19
19 °FPassing clouds.6 mph73%29.93 "Hg15 mi
6:00 AM21 °FPassing clouds.3 mph68%29.91 "Hg15 mi
5:00 AM21 °FPassing clouds.6 mph74%29.89 "Hg15 mi
4:00 AM23 °FPassing clouds.6 mph74%29.88 "Hg15 mi
3:00 AM25 °FPassing clouds.7 mph74%29.87 "Hg15 mi
2:00 AM25 °FPassing clouds.8 mph74%29.86 "Hg15 mi
1:00 AM25 °FPartly cloudy.8 mph74%29.86 "Hg15 mi
12:00 AM25 °FPassing clouds.7 mph80%29.86 "Hg15 mi
11:00 PM
Dec 18
25 °FPassing clouds.9 mph74%29.85 "Hg15 mi
10:00 PM23 °FPassing clouds.6 mph80%29.85 "Hg15 mi
9:00 PM27 °FPassing clouds.9 mph74%29.83 "Hg15 mi
8:00 PM27 °FPassing clouds.6 mph74%29.83 "Hg15 mi
7:00 PM28 °FPassing clouds.6 mph74%29.83 "Hg15 mi
6:00 PM30 °FMostly cloudy.6 mph75%29.81 "Hg15 mi
5:55 PM30 °FMostly cloudy.7 mph75%29.81 "Hg15 mi
5:00 PM30 °FMostly cloudy.8 mph75%29.80 "Hg15 mi
4:00 PM30 °FOvercast.8 mph80%29.78 "Hg15 mi
3:00 PM32 °FMore clouds than sun.6 mph80%29.78 "Hg15 mi
2:00 PM32 °FMostly cloudy.6 mph80%29.77 "Hg8 mi
1:00 PM30 °FLight snow. Ice fog.9 mph93%29.77 "Hg5 mi
12:00 PM30 °FLight snow. Ice fog.5 mph93%29.78 "Hg3 mi
11:48 AM30 °FLight snow. Ice fog.6 mph93%29.79 "Hg2 mi
11:00 AM30 °FLight snow. Ice fog.2 mph93%29.79 "Hg1 mi
10:00 AM30 °FLight snow. Ice fog.3 mph93%29.79 "Hg1 mi
9:49 AM30 °FLight snow. Ice fog.6 mph93%29.80 "Hg1 mi
9:00 AM28 °FLight snow. Ice fog.3 mph100%29.79 "Hg2 mi
8:00 AM30 °FLight snow. Ice fog.7 mph93%29.78 "Hg2 mi
7:00 AM30 °FLight snow. Ice fog.7 mph93%29.77 "Hg1 mi
Weather by CustomWeather, © 2014

See weather overviewHow to use our weather pages